Location: Ida
(33.5751°N, 96.4900°W)
Time: 18:56:24
(UTC+00:00)

BlueWalker 3 - Pass Details

Date: 05 October 2024
Orbit: 471 x 483 km, 53.2° (Epoch: 31 October)

Event Time Altitude Azimuth Distance (km) Brightness Sun altitude
Exits shadow 11:15:53 24° 300° (WNW) 1,003 3.0 -14.9°
Maximum altitude 11:16:40 26° 322° (NW) 948 3.0 -14.8°
Drops below altitude 10° 11:19:49 10° 21° (NNE) 1,631 4.8 -14.1°
Sets 11:22:13 0° 34° (NE) 2,512 6.1 -13.6°
